OBJECT C, 44854

Orbit data source: Space-Track

You're viewing an Uncataloged Satellite

Recently launched and/or uncataloged satellites may have evolving metadata. Metadata may include but not limited to: Owner, Maufacturer, Bus, Motor, and Mission.

OBJECT C, 44854 is a satellite in LEO that was launched on Wed, 11 Dec 2019 UTC via a PSLV-QL launch vehicle from the Sirharikota (SRI). Unknown objects in Earth's orbit typically refer to objects detected orbiting the Earth but have not yet been identified or cataloged. These objects could be anything from previously untracked satellites, spent rocket stages, debris from satellite collisions, or even natural meteoroids temporarily captured by Earth's gravity.

Not visible in the next 10 days
Identifier
44854, 2019-089C
Orbit
LEO
Country
Flag of TBDTBD
Related business
Manufacturer
Herzliya
Mission
Operational Amateur Imaging
Bus & Motor
CUBESAT 3U, Unknown motor
Mass
4 kg wet, 4 kg dry
Launch date (UTC)
2019-12-11 (6 years ago)
Launch vehicle
PSLV-QL
Launch site
Sirharikota (SRI)
Object type
Unknown
Shape & HBR
Box, Unknown HBR
Radar Cross Section
0.035 m², Small (<0.1 m²)

Expand to show TLE details & history
Last TLE update: 4 hours ago

TLE from 4 hours ago
0 OBJECT C
1 44854U 19089C   25342.83480616  .09794280  36047-5  11773-2 0  9999
2 44854  36.9155 249.5046 0006919 243.1769 116.8309 16.35254048331523
Epoch: 2025-12-08T20:02Z
TLE epoch observation values (Epoch: 2025-12-08T20:02:07.252Z)
Latitude
0.00003°
Longitude
-128.85373°
Altitude
179.574 km
Speed
7.8 km/s
True Right ascension
16h 38m 01s
True Declination
0° 00' 00"
Sunlit
Object was in daylight at epoch
Visualization orbit readout
Latitude
Unknown
Longitude
Unknown
Altitude
Unknown
Speed
Unknown
Apparent Right ascension
Unknown
Apparent Declination
Unknown
Sunlit
N/A
Visualization observer readout
Local Sidereal Time
22:07:21
Azimuth
Unknown
Elevation
Unknown
Doppler factor
Unknown
Orbital elements
Apogee altitude
186.084 km
Perigee altitude
177.007 km
Semi-major axis
6,559.682 km
Eccentricity
0.00069
Inclination
36.9155°
RAAN
249.5046°
Arg. of periapsis
243.1769°
True anomaly
116.90162°
Mean anomaly
116.8309°
Eccentric anomaly
116.86626°
Mean motion
4.08525 °/min
Orbital period
88.12 mins
BSTAR
0.0011773
Loading maneuver chart data...
Computing Atmospheric mass density...
Loading historical data...
Loading historical data...
Loading historical data...
Loading historical data...
Loading historical data...
Loading historical data...
Loading historical data...

Documentation

Showing up to 5 results
|